Location: Batang Balui
(2.7000°N, 113.7833°E)
Time: 19:49:53
(UTC+00:00)

VELOX 1 - Pass Details

Date: 02 April 2023
Orbit: 617 x 630 km, 98.4° (Epoch: 01 June)

Event Time Altitude Azimuth Distance (km) Brightness Sun altitude
Rises 21:35:26 0° 139° (SE) 2,917 ? -12.9°
Reaches altitude 10° 21:38:14 10° 121° (ESE) 2,005 ? -12.2°
Maximum altitude 21:41:12 18° 77° (ENE) 1,532 ? -11.5°
Drops below altitude 10° 21:44:11 10° 34° (NE) 1,994 ? -10.8°
Sets 21:46:55 0° 15° (NNE) 2,895 ? -10.1°
